Wind_Speed
1 1 1 2 4 5 5 6 5 9 6 4 7 6 13 10 7 5 6 7 9 9 7 7 10 11 11 9 7 8 7 9 10 10 11 12 12 11 12 11 9 10 12 14 16 17 17 16 14
3 2 1 3 4 7 7 6 8 7 8 11 9 7 7 12 14 12 7 9 10 10 8 7 9 11 10 8 6 6 7 8 9 8 10 12 14 12 11 12 13 14 15 16 18 18 18 17 15
3 4 5 4 3 4 9 8 8 10 8 6 5 8 5 8 7 8 11 11 13 11 10 10 10 10 8 6 7 10 8 10 10 9 7 13 13 13 16 16 16 15 16 18 17 16 16 13 13
3 3 5 4 7 8 11 7 5 9 9 5 8 10 10 8 7 12 14 14 14 14 13 14 12 10 10 9 11 14 16 13 11 10 14 15 16 17 16 16 16 16 16 16 16 16 14 14 12
2 4 5 4 9 9 8 7 5 5 6 7 3 9 13 10 16 17 16 14 15 15 14 15 13 11 11 13 15 16 16 14 11 11 14 15 17 16 17 16 15 16 16 16 17 16 14 13 13
3 3 3 4 7 10 7 4 6 8 10 10 13 16 8 12 15 15 15 14 13 14 16 14 14 13 15 18 17 17 17 15 12 12 16 20 20 16 16 15 16 16 16 15 16 15 14 12 11
2 1 2 3 10 10 6 3 9 6 9 10 12 9 11 15 14 15 14 14 12 13 11 12 14 13 15 14 21 17 18 18 16 16 23 16 20 14 15 14 14 14 14 14 14 15 13 12 12
1 3 1 0 8 5 3 4 5 8 10 11 5 7 12 19 17 15 13 12 12 10 11 12 14 15 14 15 16 17 18 17 19 20 22 18 15 14 12 11 12 12 13 12 14 13 12 13 14
1 4 4 3 5 7 4 4 2 1 11 6 2 8 19 21 18 15 14 13 12 11 10 8 9 11 13 14 15 16 16 18 15 17 19 15 12 11 10 12 12 13 13 13 14 12 11 12 13
3 2 1 4 4 4 10 4 4 5 10 9 12 17 21 19 18 16 14 14 12 10 9 8 9 7 10 9 14 14 16 15 14 13 14 11 11 13 9 11 12 13 13 13 11 10 10 13 7
4 4 3 8 6 11 9 5 1 2 7 6 13 19 19 18 16 14 13 12 12 11 9 8 9 8 11 9 11 10 12 12 12 13 11 11 10 9 8 8 9 10 13 8 8 8 7 5 7
3 6 5 10 8 9 6 5 5 3 5 6 14 17 17 16 15 14 13 13 13 11 9 8 7 8 10 9 10 12 12 12 11 10 12 11 9 10 9 9 9 10 9 9 7 4 4 4 3
9 10 11 7 8 8 6 6 2 8 3 6 14 15 15 14 14 13 12 12 12 12 9 8 8 11 11 12 10 10 11 10 10 10 13 11 10 10 9 11 9 9 8 6 4 3 2 2 2
10 11 13 8 8 4 2 5 3 4 4 10 15 14 13 13 12 12 12 11 11 11 10 9 10 11 9 7 10 9 9 10 10 10 11 14 10 11 9 9 7 7 7 5 4 5 5 6 5
14 10 9 8 8 2 3 4 2 5 5 11 14 14 13 12 11 10 10 10 11 11 11 10 11 9 8 7 7 7 7 8 9 9 11 11 11 10 11 7 7 7 7 7 4 5 5 5 5
4 2 3 8 7 9 6 3 7 4 6 12 14 13 12 12 11 10 10 9 10 10 11 11 10 10 8 8 7 7 6 8 8 9 8 10 9 8 7 5 5 8 5 3 1 1 2 2 3
5 7 4 8 9 6 9 5 10 11 9 12 14 14 14 12 11 10 10 9 9 10 11 11 11 10 9 8 6 5 6 7 9 8 7 10 9 8 7 4 6 9 3 3 1 1 2 2 3
8 5 3 1 8 9 7 3 8 13 12 13 13 15 14 13 13 12 10 10 9 10 10 12 11 11 9 8 7 5 6 7 6 7 7 11 10 8 8 7 8 7 3 3 2 1 2 3 5
4 5 4 4 4 6 5 3 8 12 11 11 14 17 17 15 12 12 11 11 10 10 11 12 14 13 11 8 7 7 6 7 6 7 8 11 13 10 9 7 6 6 5 5 2 0 4 4 6
9 5 8 4 5 6 2 5 5 13 17 18 15 15 18 16 14 13 12 12 12 11 10 13 14 14 10 9 9 7 7 6 6 8 9 12 13 11 10 9 6 6 4 5 4 3 2 4 5
9 4 2 4 7 6 6 7 7 11 12 17 15 18 18 19 17 16 16 15 14 14 13 12 15 17 13 12 11 11 8 8 7 8 9 10 11 10 9 9 9 8 5 3 4 1 4 4 5
10 3 3 6 8 3 3 1 7 9 12 15 19 19 22 21 19 18 18 18 18 16 14 14 12 16 13 15 11 11 8 6 7 10 9 8 10 9 9 10 11 10 6 5 3 1 1 4 4
2 3 5 4 3 5 5 6 7 4 9 13 17 23 26 23 21 20 19 18 18 17 16 15 14 17 15 15 14 11 11 7 8 10 10 9 10 10 9 7 12 12 8 8 6 3 2 2 2
4 7 6 7 4 10 7 7 7 4 1 2 14 18 20 22 22 20 20 18 17 18 19 17 17 17 18 14 14 15 12 9 9 10 9 8 8 11 8 8 7 13 14 11 8 8 7 4 3
11 12 8 8 7 2 6 7 8 3 2 1 3 14 20 21 21 22 22 21 20 19 20 19 19 19 18 16 14 17 15 11 9 8 10 10 10 11 12 9 7 9 13 12 11 9 7 4 4
12 12 10 3 5 1 3 3 6 3 2 2 2 6 12 19 21 21 23 22 21 20 21 20 20 19 19 18 16 15 17 12 10 10 10 8 9 9 11 11 9 9 9 10 10 8 5 6 4
8 9 5 6 5 7 3 2 6 3 4 4 1 1 4 12 19 21 20 22 22 22 22 21 20 19 20 18 19 17 16 16 13 13 12 9 11 10 10 11 10 9 12 12 10 7 7 8 5
8 2 7 8 3 5 5 3 3 2 3 1 3 4 5 2 7 16 20 21 22 22 22 21 20 21 20 18 18 17 17 15 15 14 15 13 11 12 12 11 11 12 12 11 12 9 9 8 7
6 9 7 7 5 7 4 4 6 3 3 4 6 4 4 3 2 8 15 21 21 21 21 20 20 21 20 20 19 18 16 16 16 15 16 16 16 15 15 15 14 12 13 13 11 10 10 9 9
7 10 6 8 10 6 7 6 7 5 5 3 5 5 5 4 1 5 10 14 19 21 21 20 19 21 21 20 20 20 19 18 17 17 18 17 17 19 18 15 15 14 13 14 15 13 10 10 10
Wind_Direction
49 156 215 249 244 228 84 84 90 115 131 71 94 23 74 33 10 49 126 110 128 142 145 148 174 175 163 155 133 129 139 153 154 155 147 146 144 137 122 118 114 119 132 133 124 118 113 111 106
180 196 251 258 247 162 96 86 93 71 96 113 89 110 58 75 76 99 103 118 127 132 132 136 163 187 193 198 187 160 143 146 144 152 151 150 145 138 124 126 129 125 130 126 122 118 114 111 105
181 224 263 266 226 111 105 75 90 102 119 135 110 67 49 91 77 97 119 122 118 116 111 118 127 143 168 179 176 176 146 141 128 113 139 147 143 131 126 127 130 127 127 126 119 116 111 105 94
210 235 234 241 127 74 103 92 112 117 102 101 110 89 94 89 97 123 116 115 111 110 107 109 107 113 128 139 151 156 145 137 130 126 110 128 124 127 134 134 127 125 123 120 114 111 107 100 98
193 248 228 169 91 116 92 79 54 108 89 121 146 113 105 92 117 118 115 112 111 110 103 105 106 104 107 125 133 139 137 133 138 139 129 128 125 124 134 131 125 123 123 117 109 106 101 95 97
218 282 208 158 116 125 102 69 73 77 114 107 119 120 95 129 124 124 119 114 106 113 114 99 103 93 85 102 131 129 131 122 125 144 139 126 117 121 135 131 128 127 124 115 114 108 97 98 100
312 2 71 101 138 136 113 57 67 76 103 93 130 118 128 145 139 130 127 120 112 111 112 125 108 99 106 107 113 130 123 109 99 141 137 127 122 130 132 131 130 130 128 123 119 106 102 98 97
77 102 107 114 166 122 109 76 63 49 90 114 118 149 159 156 146 138 130 122 115 112 110 124 115 114 115 115 119 121 118 116 111 122 139 131 131 132 126 130 131 138 135 129 117 113 107 98 92
183 231 169 155 201 126 143 126 103 92 135 65 56 122 145 152 151 145 139 136 129 125 120 115 112 114 115 115 116 122 124 107 116 124 126 111 99 113 108 151 138 138 136 126 124 119 106 94 93
319 308 19 50 116 150 152 129 147 169 146 86 103 117 138 148 153 156 151 147 141 137 130 125 124 115 98 110 119 127 124 128 128 119 112 123 130 141 141 133 133 138 134 130 128 117 102 81 75
37 26 75 83 115 142 144 133 135 187 157 99 133 138 144 150 156 159 155 152 148 141 134 143 137 140 122 133 123 115 122 124 122 123 118 126 121 123 129 128 118 135 132 122 115 97 82 102 100
94 47 94 119 107 103 86 134 162 154 89 91 139 144 153 158 159 157 154 152 149 144 140 143 139 134 128 123 130 134 133 131 124 129 119 119 121 130 131 133 135 130 138 138 126 114 129 98 54
88 93 103 131 133 104 90 44 182 156 102 132 145 147 159 162 158 157 157 153 151 148 152 146 144 133 128 123 131 136 130 129 130 120 129 124 123 128 123 126 127 132 120 120 115 109 87 64 91
107 112 120 122 124 83 68 349 244 156 149 147 155 154 161 163 160 157 159 158 157 155 156 156 146 144 134 132 128 135 137 141 133 130 133 128 127 126 128 120 125 120 121 122 113 102 81 77 91
125 124 125 141 150 117 146 332 134 143 172 163 162 160 163 163 164 162 160 163 164 159 161 161 156 156 142 137 123 135 133 145 139 138 138 136 133 129 134 131 119 129 127 119 105 85 67 70 65
132 172 142 160 165 149 147 202 216 203 188 180 173 167 172 173 173 167 160 163 166 164 161 159 160 168 157 155 127 125 136 148 150 146 144 152 148 143 139 132 143 151 136 139 136 61 25 45 46
194 71 63 161 196 150 217 125 163 193 208 203 187 185 183 186 185 180 170 169 179 172 169 168 167 167 165 168 151 153 144 150 158 155 160 173 170 165 154 143 161 173 175 186 182 339 63 19 17
52 50 54 14 174 211 199 185 161 181 187 204 199 203 196 199 195 191 183 175 181 187 182 180 180 192 192 195 198 183 167 147 163 171 180 177 178 174 166 151 155 163 172 203 200 161 346 338 318
330 344 23 86 142 209 228 244 181 187 196 208 223 207 204 207 196 195 197 190 186 188 190 194 197 211 217 216 194 188 179 182 175 178 179 175 175 176 168 157 145 145 148 185 220 316 2 356 355
282 306 83 104 162 239 205 240 183 202 203 213 216 218 211 206 205 202 202 199 198 197 191 196 204 211 202 186 178 178 186 187 182 181 179 173 173 179 174 175 158 150 145 132 132 112 27 14 11
241 307 112 44 172 236 268 216 189 196 211 210 212 226 230 219 213 212 212 208 206 202 196 198 201 199 198 185 189 189 187 188 188 190 174 180 183 181 185 186 176 165 146 159 130 29 14 354 351
269 71 182 156 222 82 262 106 166 184 197 202 221 217 225 213 221 217 211 212 207 205 200 195 206 201 201 196 195 190 182 190 180 174 177 183 186 185 198 201 197 193 189 189 201 238 329 339 338
352 153 207 242 265 277 154 266 108 177 217 216 213 209 219 224 219 215 213 210 208 204 199 197 203 205 199 209 208 198 184 194 181 184 197 183 198 193 201 208 212 213 213 227 227 247 279 349 11
132 160 187 221 272 241 83 296 143 136 338 128 205 213 215 215 218 217 213 211 209 204 200 197 202 208 210 213 212 207 204 190 186 188 194 200 206 204 203 211 221 225 227 232 236 248 264 243 266
206 207 219 214 200 303 79 268 48 74 180 354 213 218 217 220 218 216 213 209 209 206 203 199 201 209 215 216 217 211 209 208 202 203 196 203 207 210 226 219 239 233 222 223 228 235 239 244 235
220 264 269 253 263 217 144 259 89 98 168 153 235 243 233 218 218 217 216 213 212 208 206 204 207 208 212 220 220 215 212 213 206 211 207 203 209 219 218 225 235 217 209 215 225 232 229 255 271
148 226 331 296 205 259 77 144 189 163 202 223 137 156 206 219 218 218 216 216 217 215 211 208 207 212 210 216 222 221 222 214 215 212 217 222 215 215 220 218 221 220 227 233 238 228 243 239 268
286 68 214 217 259 264 97 278 0 82 88 131 231 109 100 147 211 216 221 219 219 221 220 217 216 215 211 208 217 220 222 229 225 221 220 220 218 220 217 221 228 228 232 236 240 235 252 248 255
177 213 233 309 329 307 243 118 78 108 111 53 94 130 88 95 184 219 220 221 222 220 217 221 213 213 211 211 211 216 217 221 227 226 230 234 240 234 232 239 231 233 232 232 237 229 227 251 256
270 286 235 237 190 234 318 319 113 127 140 116 103 93 69 40 306 235 218 214 216 216 215 215 217 212 214 213 213 220 228 219 222 228 231 235 234 242 240 238 236 240 230 237 237 240 240 251 250
Height
1513 1515 1516 1516 1517 1495 1509 1509 1502 1509 1511 1516 1519 1518 1522 1527 1524 1530 1540 1541 1542 1544 1545 1545 1545 1547 1549 1550 1551 1553 1554 1555 1555 1556 1557 1559 1560 1561 1561 1562 1564 1563 1564 1567 1566 1566 1568 1570 1570
1516 1515 1516 1514 1509 1501 1514 1504 1507 1509 1515 1519 1522 1522 1523 1530 1533 1537 1540 1542 1543 1545 1547 1547 1546 1547 1548 1550 1552 1553 1554 1556 1557 1557 1559 1559 1561 1562 1563 1562 1564 1566 1567 1568 1567 1569 1570 1571 1571
1514 1515 1514 1504 1501 1511 1515 1510 1511 1516 1518 1519 1523 1525 1528 1535 1537 1539 1541 1543 1544 1545 1546 1546 1547 1548 1549 1550 1551 1552 1554 1557 1558 1557 1558 1559 1562 1563 1564 1565 1567 1568 1569 1569 1570 1572 1570 1572 1572
1516 1516 1513 1507 1512 1512 1510 1515 1516 1517 1520 1522 1524 1529 1536 1538 1539 1541 1544 1545 1546 1547 1548 1548 1549 1549 1550 1550 1551 1553 1556 1557 1558 1559 1560 1561 1563 1564 1566 1568 1569 1570 1572 1572 1571 1573 1572 1573 1574
1516 1513 1504 1510 1517 1515 1517 1520 1518 1516 1520 1523 1525 1529 1537 1541 1542 1544 1546 1547 1548 1549 1551 1550 1551 1552 1551 1551 1553 1556 1557 1557 1559 1560 1562 1563 1564 1566 1567 1570 1570 1572 1574 1574 1574 1574 1575 1575 1576
1514 1512 1514 1519 1523 1517 1521 1524 1520 1520 1522 1526 1528 1532 1541 1544 1545 1547 1549 1550 1550 1550 1551 1552 1553 1554 1553 1549 1555 1558 1559 1559 1558 1562 1564 1566 1566 1567 1569 1572 1573 1574 1576 1576 1576 1577 1577 1577 1577
1512 1514 1522 1517 1520 1518 1522 1525 1524 1522 1522 1526 1530 1531 1543 1545 1547 1549 1551 1553 1554 1554 1554 1555 1557 1555 1555 1555 1553 1560 1560 1560 1560 1564 1566 1567 1568 1570 1571 1573 1575 1576 1577 1578 1578 1579 1580 1579 1579
1512 1516 1523 1517 1518 1525 1527 1526 1528 1524 1527 1530 1532 1531 1540 1544 1548 1550 1553 1555 1556 1557 1557 1556 1558 1558 1559 1560 1559 1560 1560 1563 1565 1567 1568 1570 1571 1573 1574 1576 1577 1577 1579 1580 1580 1581 1582 1582 1581
1514 1509 1517 1514 1514 1521 1528 1526 1529 1529 1529 1532 1533 1533 1538 1544 1548 1552 1554 1556 1558 1560 1560 1561 1560 1561 1561 1563 1563 1564 1567 1566 1568 1570 1570 1572 1575 1577 1578 1578 1578 1580 1581 1582 1583 1584 1584 1584 1583
1509 1513 1514 1511 1520 1524 1526 1528 1527 1527 1528 1532 1535 1537 1541 1545 1549 1552 1554 1557 1559 1561 1562 1563 1565 1565 1566 1566 1567 1568 1570 1571 1573 1574 1576 1578 1579 1579 1581 1579 1580 1582 1583 1584 1585 1586 1586 1586 1590
1511 1514 1514 1520 1522 1523 1525 1528 1528 1526 1527 1530 1534 1539 1543 1546 1550 1552 1555 1558 1560 1562 1564 1565 1565 1566 1569 1569 1571 1572 1574 1576 1576 1576 1579 1579 1580 1581 1583 1582 1584 1585 1585 1588 1588 1588 1591 1591 1591
1511 1516 1516 1523 1526 1526 1528 1528 1528 1527 1527 1532 1536 1540 1544 1547 1549 1552 1555 1559 1561 1563 1565 1565 1566 1566 1568 1570 1573 1574 1576 1578 1580 1579 1580 1581 1583 1582 1584 1586 1586 1587 1589 1588 1589 1592 1591 1592 1592
1512 1519 1521 1524 1528 1529 1530 1531 1529 1530 1533 1535 1538 1541 1544 1547 1550 1553 1556 1559 1562 1563 1565 1566 1566 1567 1569 1571 1573 1575 1576 1579 1579 1580 1579 1582 1584 1584 1586 1586 1588 1589 1590 1591 1592 1592 1592 1592 1593
1517 1520 1523 1525 1527 1528 1530 1533 1531 1533 1535 1536 1539 1542 1545 1548 1550 1553 1556 1559 1562 1564 1565 1566 1568 1568 1570 1571 1572 1575 1577 1577 1580 1581 1581 1581 1584 1584 1587 1588 1590 1590 1591 1592 1593 1592 1593 1593 1593
1518 1519 1523 1525 1528 1533 1534 1537 1536 1534 1536 1537 1539 1542 1546 1549 1552 1554 1556 1559 1562 1564 1565 1567 1569 1570 1570 1572 1574 1576 1577 1579 1580 1581 1581 1583 1584 1585 1586 1588 1591 1592 1592 1592 1593 1593 1594 1595 1595
1514 1516 1525 1526 1527 1533 1534 1542 1535 1537 1537 1537 1539 1542 1546 1549 1552 1554 1556 1559 1561 1564 1565 1568 1570 1571 1571 1573 1574 1577 1577 1579 1580 1582 1583 1584 1585 1586 1587 1590 1591 1592 1594 1595 1595 1596 1596 1596 1596
1512 1514 1518 1524 1525 1526 1529 1528 1531 1536 1538 1537 1538 1541 1544 1548 1551 1554 1556 1558 1561 1563 1565 1568 1570 1572 1572 1573 1575 1576 1576 1579 1580 1582 1583 1584 1585 1587 1588 1590 1591 1593 1595 1596 1596 1596 1596 1597 1597
1509 1509 1514 1517 1519 1523 1523 1523 1528 1533 1536 1538 1537 1539 1542 1545 1549 1552 1555 1558 1561 1563 1565 1567 1569 1571 1571 1573 1575 1577 1577 1578 1580 1581 1582 1584 1585 1587 1589 1590 1591 1593 1596 1597 1597 1596 1596 1597 1596
1507 1508 1513 1515 1517 1519 1518 1521 1527 1530 1536 1537 1537 1536 1539 1543 1547 1550 1553 1556 1559 1561 1563 1566 1567 1569 1571 1573 1576 1577 1578 1579 1580 1582 1581 1583 1585 1587 1589 1591 1592 1594 1596 1596 1596 1597 1596 1598 1596
1507 1510 1514 1517 1518 1518 1515 1516 1519 1525 1529 1534 1536 1535 1536 1540 1544 1548 1552 1554 1557 1559 1561 1564 1565 1567 1569 1572 1574 1577 1578 1580 1581 1581 1581 1583 1585 1587 1588 1590 1592 1593 1596 1596 1596 1597 1598 1598 1597
1503 1507 1512 1513 1516 1513 1513 1513 1518 1521 1526 1529 1532 1534 1537 1538 1540 1544 1548 1552 1555 1557 1559 1561 1563 1566 1569 1571 1573 1575 1577 1578 1580 1581 1582 1584 1585 1586 1587 1589 1591 1593 1595 1597 1596 1597 1597 1599 1598
1504 1504 1507 1511 1508 1519 1507 1522 1510 1512 1519 1525 1526 1530 1532 1535 1538 1540 1543 1547 1551 1555 1558 1559 1561 1564 1566 1569 1572 1575 1577 1578 1580 1582 1583 1584 1585 1586 1587 1588 1590 1592 1594 1595 1596 1597 1597 1597 1599
1503 1506 1507 1507 1505 1508 1509 1508 1505 1509 1513 1513 1519 1524 1528 1530 1533 1535 1539 1543 1547 1552 1555 1557 1559 1562 1565 1567 1570 1573 1576 1578 1579 1581 1581 1584 1584 1585 1587 1588 1589 1591 1593 1593 1595 1596 1597 1598 1598
1504 1508 1509 1506 1505 1511 1506 1509 1501 1500 1503 1504 1509 1516 1520 1525 1528 1532 1536 1540 1544 1548 1552 1555 1556 1559 1562 1565 1568 1571 1573 1575 1578 1580 1581 1583 1584 1584 1585 1587 1588 1589 1590 1592 1594 1595 1595 1597 1597
1503 1501 1510 1516 1512 1510 1500 1508 1495 1496 1501 1505 1507 1510 1516 1520 1523 1528 1532 1536 1541 1544 1548 1552 1554 1556 1559 1563 1565 1568 1571 1573 1576 1578 1580 1582 1583 1584 1584 1585 1586 1587 1588 1589 1591 1592 1594 1595 1596
1499 1493 1501 1524 1516 1507 1502 1509 1498 1498 1501 1506 1509 1509 1510 1514 1520 1524 1528 1533 1537 1541 1545 1548 1551 1553 1556 1560 1563 1565 1568 1571 1574 1576 1578 1580 1581 1583 1583 1583 1584 1585 1586 1588 1589 1591 1593 1594 1595
1498 1505 1487 1498 1500 1512 1497 1497 1493 1496 1499 1502 1505 1508 1509 1511 1514 1520 1525 1529 1534 1537 1541 1544 1548 1550 1553 1556 1560 1562 1565 1568 1572 1574 1575 1577 1579 1581 1580 1581 1583 1584 1585 1587 1588 1590 1590 1592 1593
1493 1487 1503 1498 1520 1523 1501 1507 1499 1495 1498 1499 1500 1503 1508 1510 1513 1517 1521 1525 1529 1534 1538 1541 1544 1547 1551 1554 1557 1560 1562 1564 1567 1569 1571 1574 1576 1577 1579 1579 1581 1583 1585 1585 1586 1589 1589 1590 1592
1496 1494 1494 1489 1496 1507 1509 1498 1487 1493 1498 1498 1501 1505 1507 1510 1512 1515 1517 1521 1525 1530 1534 1538 1540 1544 1547 1550 1553 1556 1559 1561 1563 1566 1568 1570 1572 1573 1575 1576 1579 1581 1582 1583 1584 1585 1588 1588 1589
1485 1486 1485 1498 1503 1496 1502 1499 1485 1493 1498 1501 1503 1506 1509 1510 1512 1513 1515 1517 1521 1525 1529 1533 1537 1540 1543 1547 1549 1551 1554 1557 1560 1562 1565 1566 1568 1569 1571 1573 1575 1578 1579 1581 1582 1583 1587 1586 1587